International Skating Union - Official Site

Essent ISU World Allround Championships 2013
February 16-17, 2013

Draw | Lap Times | Index | Classification

Referee: Knut Arthur  OLSEN  (NOR)
Starter: Franco  CESCHI  (ITA)
StartTime: EndTime: Air Temp: Ice Temp: Humidity:
15:18 16:46 16.7℃ -9.7℃ 26.5
Result 3000m Ladies
Rankings as of Feb 16 2013 4:54PM
Rank: No.: Name: Nation: Time: Behind: Points:
1 18 Ireen  Wüst NED NED 4:05.41200m - 19.99 - (19.9)
600m - 51.10 - (31.1)
1000m - 1:22.95 - (31.8)
1400m - 1:54.35 - (31.3)
1800m - 2:26.33 - (31.9)
2200m - 2:58.53 - (32.2)
2600m - 3:31.67 - (33.1)
3000m - 4:05.41 - (33.7)
40.901
2 16 Diane  Valkenburg NED NED 4:08.12200m - 20.71 - (20.7)
600m - 53.07 - (32.3)
1000m - 1:25.44 - (32.3)
1400m - 1:57.34 - (31.9)
1800m - 2:29.01 - (31.6)
2200m - 3:01.13 - (32.1)
2600m - 3:33.99 - (32.8)
3000m - 4:08.12 - (34.1)
2.71 41.353
3 21 Ida  Njåtun NOR NOR 4:08.64200m - 20.58 - (20.5)
600m - 52.83 - (32.2)
1000m - 1:24.75 - (31.9)
1400m - 1:56.88 - (32.1)
1800m - 2:29.31 - (32.4)
2200m - 3:01.90 - (32.5)
2600m - 3:34.80 - (32.8)
3000m - 4:08.64 - (33.8)
3.23 41.440
4 28 Yekaterina  Shikhova RUS RUS 4:08.74200m - 20.79 - (20.7)
600m - 53.88 - (33.0)
1000m - 1:26.43 - (32.5)
1400m - 1:58.66 - (32.2)
1800m - 2:30.81 - (32.1)
2200m - 3:03.09 - (32.2)
2600m - 3:35.54 - (32.4)
3000m - 4:08.74 - (33.2)
3.33 41.456
5 17 Linda  de Vries NED NED 4:10.20200m - 19.84 - (19.8)
600m - 51.70 - (31.8)
1000m - 1:23.41 - (31.7)
1400m - 1:55.60 - (32.1)
1800m - 2:28.35 - (32.7)
2200m - 3:01.67 - (33.3)
2600m - 3:35.72 - (34.0)
3000m - 4:10.20 - (34.4)
4.79 41.700
6 26 Yevgeniya  Dmitriyeva RUS RUS 4:10.57200m - 20.51 - (20.5)
600m - 52.21 - (31.7)
1000m - 1:24.69 - (32.4)
1400m - 1:57.39 - (32.7)
1800m - 2:30.76 - (33.3)
2200m - 3:04.13 - (33.3)
2600m - 3:37.23 - (33.1)
3000m - 4:10.57 - (33.3)
5.16 41.761
7 10 Masako  Hozumi JPN JPN 4:11.60200m - 20.67 - (20.6)
600m - 52.02 - (31.3)
1000m - 1:23.80 - (31.7)
1400m - 1:55.99 - (32.1)
1800m - 2:28.97 - (32.9)
2200m - 3:02.48 - (33.5)
2600m - 3:36.56 - (34.0)
3000m - 4:11.60 - (35.0)
6.19 41.933
8 20 Mari  Hemmer NOR NOR 4:12.50200m - 20.80 - (20.8)
600m - 52.87 - (32.0)
1000m - 1:25.41 - (32.5)
1400m - 1:58.08 - (32.6)
1800m - 2:31.32 - (33.2)
2200m - 3:04.74 - (33.4)
2600m - 3:38.51 - (33.7)
3000m - 4:12.50 - (33.9)
7.09 42.083
9 5 Brittany  Schussler CAN CAN 4:13.24200m - 20.39 - (20.4)
600m - 51.33 - (30.9)
1000m - 1:22.99 - (31.6)
1400m - 1:55.65 - (32.6)
1800m - 2:28.82 - (33.1)
2200m - 3:02.83 - (34.0)
2600m - 3:37.67 - (34.8)
3000m - 4:13.24 - (35.5)
7.83 42.206
10 22 Natalia  Czerwonka POL POL 4:14.93200m - 20.36 - (20.3)
600m - 52.57 - (32.2)
1000m - 1:24.95 - (32.3)
1400m - 1:57.73 - (32.7)
1800m - 2:31.05 - (33.3)
2200m - 3:05.03 - (33.9)
2600m - 3:39.47 - (34.4)
3000m - 4:14.93 - (35.4)
9.52 42.488
11 27 Olga  Graf RUS RUS 4:14.97200m - 21.56 - (21.5)
600m - 54.36 - (32.8)
1000m - 1:27.94 - (33.5)
1400m - 2:01.57 - (33.6)
1800m - 2:34.93 - (33.3)
2200m - 3:08.17 - (33.2)
2600m - 3:41.38 - (33.2)
3000m - 4:14.97 - (33.5)
9.56 42.495
12 13 Miho  Takagi JPN JPN 4:15.71200m - 20.65 - (20.6)
600m - 53.53 - (32.8)
1000m - 1:27.15 - (33.6)
1400m - 2:00.62 - (33.4)
1800m - 2:33.98 - (33.3)
2200m - 3:07.64 - (33.6)
2600m - 3:41.37 - (33.7)
3000m - 4:15.71 - (34.3)
10.30 42.618
13 7 Claudia  Pechstein GER GER 4:15.87200m - 20.51 - (20.5)
600m - 53.19 - (32.6)
1000m - 1:26.58 - (33.3)
1400m - 2:00.25 - (33.6)
1800m - 2:33.80 - (33.5)
2200m - 3:07.64 - (33.8)
2600m - 3:41.75 - (34.1)
3000m - 4:15.87 - (34.1)
10.46 42.645
13 12 Maki  Tabata JPN JPN 4:15.87200m - 20.35 - (20.3)
600m - 51.62 - (31.2)
1000m - 1:23.81 - (32.1)
1400m - 1:56.85 - (33.0)
1800m - 2:30.66 - (33.8)
2200m - 3:05.09 - (34.4)
2600m - 3:40.00 - (34.9)
3000m - 4:15.87 - (35.8)
10.46 42.645
15 14 Lotte  van Beek NED NED 4:17.17200m - 20.26 - (20.2)
600m - 52.38 - (32.1)
1000m - 1:25.28 - (32.9)
1400m - 1:58.84 - (33.5)
1800m - 2:33.02 - (34.1)
2200m - 3:07.24 - (34.2)
2600m - 3:41.87 - (34.6)
3000m - 4:17.17 - (35.3)
11.76 42.861
16 24 Luiza  Zlotkowska POL POL 4:17.27200m - 20.60 - (20.6)
600m - 52.55 - (31.9)
1000m - 1:25.28 - (32.7)
1400m - 1:58.75 - (33.4)
1800m - 2:32.67 - (33.9)
2200m - 3:07.12 - (34.4)
2600m - 3:42.06 - (34.9)
3000m - 4:17.27 - (35.2)
11.86 42.878
17 1 Anna  Rokita AUT AUT 4:17.49200m - 20.93 - (20.9)
600m - 54.64 - (33.7)
1000m - 1:28.41 - (33.7)
1400m - 2:01.96 - (33.5)
1800m - 2:35.76 - (33.8)
2200m - 3:09.60 - (33.8)
2600m - 3:43.38 - (33.7)
3000m - 4:17.49 - (34.1)
12.08 42.915
18 4 Christine  Nesbitt CAN CAN 4:18.13200m - 20.26 - (20.2)
600m - 52.75 - (32.4)
1000m - 1:25.92 - (33.1)
1400m - 1:59.18 - (33.2)
1800m - 2:32.70 - (33.5)
2200m - 3:06.91 - (34.2)
2600m - 3:41.79 - (34.8)
3000m - 4:18.13 - (36.3)
12.72 43.021
19 3 Kali  Christ CAN CAN 4:18.22200m - 20.84 - (20.8)
600m - 52.98 - (32.1)
1000m - 1:26.15 - (33.1)
1400m - 1:59.61 - (33.4)
1800m - 2:33.68 - (34.0)
2200m - 3:08.43 - (34.7)
2600m - 3:43.47 - (35.0)
3000m - 4:18.22 - (34.7)
12.81 43.036
20 30 Maria  Lamb USA USA 4:20.25200m - 20.81 - (20.8)
600m - 53.80 - (33.0)
1000m - 1:26.79 - (32.9)
1400m - 2:00.10 - (33.3)
1800m - 2:34.28 - (34.1)
2200m - 3:08.88 - (34.6)
2600m - 3:44.22 - (35.3)
3000m - 4:20.25 - (36.0)
14.84 43.375
21 29 Petra  Acker USA USA 4:20.44200m - 20.81 - (20.8)
600m - 53.34 - (32.5)
1000m - 1:26.58 - (33.2)
1400m - 2:00.56 - (33.9)
1800m - 2:34.66 - (34.1)
2200m - 3:09.16 - (34.5)
2600m - 3:44.23 - (35.0)
3000m - 4:20.44 - (36.2)
15.03 43.406
22 23 Katarzyna  Wozniak POL POL 4:21.10200m - 20.95 - (20.9)
600m - 53.41 - (32.4)
1000m - 1:26.36 - (32.9)
1400m - 2:00.17 - (33.8)
1800m - 2:34.51 - (34.3)
2200m - 3:09.70 - (35.1)
2600m - 3:45.31 - (35.6)
3000m - 4:21.10 - (35.7)
15.69 43.516
23 31 Anna  Ringsred USA USA 4:26.02200m - 21.14 - (21.1)
600m - 53.81 - (32.6)
1000m - 1:27.21 - (33.4)
1400m - 2:01.73 - (34.5)
1800m - 2:36.12 - (34.4)
2200m - 3:11.40 - (35.2)
2600m - 3:47.77 - (36.3)
3000m - 4:26.02 - (38.2)
20.61 44.336
24 8 Francesca  Bettrone ITA ITA 4:32.52200m - 21.01 - (21.0)
600m - 55.59 - (34.5)
1000m - 1:31.63 - (36.0)
1400m - 2:07.72 - (36.0)
1800m - 2:43.53 - (35.8)
2200m - 3:19.66 - (36.1)
2600m - 3:56.28 - (36.6)
3000m - 4:32.52 - (36.2)
27.11 45.420